Alabaster, AL

12:50 PM CDT on July 25, 2017 (GMT -0500)
Shelby County

Weather History for KEET - January, 2013

Change the Weather History Date:

Monday, January 14, 2013

  Actual Average Record
Temperature  
Mean Temperature 46 °F 44 °F  
Max Temperature 52 °F 54 °F 76 °F (2017)
Min Temperature 39 °F 34 °F 12 °F (1963)
Degree Days  
Heating Degree Days 19 21  
Month to date heating degree days 187 294  
Since 1 July heating degree days 1080 1314  
Moisture  
Dew Point 43 °F    
Average Humidity 93    
Maximum Humidity 96    
Minimum Humidity 89    
Precipitation  
Precipitation 0.90 in 0.17 in 1.55 in (1967)
Month to date precipitation 3.45 2.15  
Year to date precipitation 3.45 2.15  
Snow  
Snow 0.00 in - - ()
Month to date snowfall 0.0  
Since 1 July snowfall 0.0  
Snow Depth 0.00 in    
Sea Level Pressure  
Sea Level Pressure 30.13 in    
Wind  
Wind Speed 6 mph (North)    
Max Wind Speed 14 mph    
Max Gust Speed 21 mph    
Visibility 4 miles    
Events Rain    
T = Trace of Precipitation, MM = Missing Value Source: NWS Daily Summary

Daily Weather History Graph

Daily Weather History Graph

Search for Another Location

Airport or City:

Trip Planner

Search our weather history database for the weather conditions in past years. The results will help you decide how hot, cold, wet, or windy it might be!

Date:

Astronomy

Jan. 14, 2013 Rise Set
Actual Time 6:50 AM CST 5:02 PM CST
Civil Twilight 6:23 AM CST 5:29 PM CST
Nautical Twilight 5:53 AM CST 5:59 PM CST
Astronomical Twilight 5:23 AM CST 6:29 PM CST
Moon 8:36 AM CST (1/14) 8:33 PM CST (1/14)
Length of Visible Light 11h 05m
Length of Day
10h 11m
Waxing Crescent, 11% of the Moon is Illuminated
Jan 14
Waxing Crescent
Jan 18
First Quarter
Jan 26
Full
Feb 3
Last Quarter
Feb 10
New

Hourly Weather History & Observations

Time (CST) Temp. Windchill Dew Point Humidity Pressure Visibility Wind Dir Wind Speed Gust Speed Precip Events Conditions
12:32 AM 50.0 °F - 48.2 °F 94% 30.07 in 10.0 mi NNW 9.2 mph - 0.00 in   Overcast
12:53 AM 50.0 °F - 48.0 °F 93% 30.06 in 10.0 mi NNW 10.4 mph - 0.00 in   Overcast
1:53 AM 48.9 °F - 46.9 °F 93% 30.06 in 10.0 mi Variable 5.8 mph 16.1 mph N/A   Overcast
2:53 AM 48.0 °F - 45.0 °F 89% 30.07 in 5.0 mi North 8.1 mph - 0.03 in Rain Rain
3:13 AM 46.4 °F 42.4 °F 44.6 °F 93% 30.08 in 3.0 mi NNW 8.1 mph - 0.05 in Rain Rain
3:53 AM 46.9 °F - 45.0 °F 93% 30.06 in 6.0 mi North 6.9 mph - 0.08 in Rain Light Rain
4:05 AM 46.4 °F 44.3 °F 44.6 °F 93% 30.07 in 4.0 mi NNW 4.6 mph - 0.03 in Rain Rain
4:33 AM 46.4 °F 43.5 °F 44.6 °F 93% 30.09 in 7.0 mi NNW 5.8 mph - 0.08 in Rain Light Rain
4:53 AM 46.0 °F 41.9 °F 44.1 °F 93% 30.08 in 8.0 mi North 8.1 mph - 0.09 in Rain Light Rain
5:53 AM 46.0 °F 42.5 °F 44.1 °F 93% 30.11 in 7.0 mi NNW 6.9 mph - 0.01 in Rain Light Rain
6:12 AM 44.6 °F 39.7 °F 42.8 °F 93% 30.13 in 5.0 mi NNW 9.2 mph - 0.00 in   Overcast
6:28 AM 44.6 °F 40.7 °F 42.8 °F 93% 30.12 in 2.0 mi North 6.9 mph - 0.04 in Rain Rain
6:35 AM 44.6 °F 40.2 °F 42.8 °F 93% 30.12 in 1.8 mi North 8.1 mph - 0.08 in Rain Heavy Rain
6:44 AM 44.6 °F 42.2 °F 42.8 °F 93% 30.12 in 3.0 mi North 4.6 mph - 0.09 in Rain Light Rain
6:53 AM 45.0 °F 41.8 °F 43.0 °F 93% 30.12 in 4.0 mi North 5.8 mph - 0.10 in Rain Light Rain
7:03 AM 44.6 °F 43.1 °F 42.8 °F 93% 30.13 in 1.8 mi North 3.5 mph - 0.03 in Rain Rain
7:10 AM 44.6 °F 41.4 °F 42.8 °F 93% 30.14 in 1.8 mi North 5.8 mph - 0.06 in Rain Rain
7:33 AM 44.6 °F 42.2 °F 42.8 °F 93% 30.14 in 1.2 mi North 4.6 mph - 0.17 in Rain Rain
7:43 AM 44.6 °F 43.1 °F 42.8 °F 93% 30.15 in 2.0 mi North 3.5 mph - 0.19 in Rain Rain
7:49 AM 44.6 °F 43.1 °F 42.8 °F 93% 30.15 in 3.0 mi NNE 3.5 mph - 0.20 in Rain Light Rain
7:53 AM 45.0 °F 43.5 °F 43.0 °F 93% 30.14 in 5.0 mi Variable 3.5 mph - 0.20 in Rain Light Rain
8:17 AM 44.6 °F 42.2 °F 42.8 °F 93% 30.14 in 2.0 mi North 4.6 mph - 0.06 in Rain Rain
8:38 AM 44.6 °F 42.2 °F 42.8 °F 93% 30.16 in 4.0 mi Variable 4.6 mph - 0.10 in Rain Light Rain
8:45 AM 44.6 °F - 42.8 °F 93% 30.17 in 6.0 mi Calm Calm - 0.10 in Rain Light Rain
8:53 AM 45.0 °F - 43.0 °F 93% 30.16 in 4.0 mi Calm Calm - 0.12 in Rain Rain
9:04 AM 44.6 °F 41.4 °F 42.8 °F 93% 30.16 in 3.0 mi North 5.8 mph - 0.01 in Rain Light Rain
9:19 AM 44.6 °F 42.2 °F 42.8 °F 93% 30.16 in 5.0 mi Variable 4.6 mph - 0.03 in Rain Light Rain
9:35 AM 46.4 °F - 42.8 °F 87% 30.16 in 2.0 mi Calm Calm - 0.06 in Rain Light Rain
9:44 AM 44.6 °F 41.4 °F 42.8 °F 93% 30.16 in 4.0 mi NW 5.8 mph - 0.07 in Rain Light Rain
9:53 AM 45.0 °F 42.6 °F 43.0 °F 93% 30.15 in 7.0 mi North 4.6 mph - 0.07 in Rain Light Rain
10:13 AM 46.4 °F 45.2 °F 42.8 °F 87% 30.15 in 4.0 mi North 3.5 mph - 0.00 in Rain Light Rain
10:53 AM 46.9 °F - 44.1 °F 90% 30.13 in 3.0 mi North 4.6 mph - 0.01 in   Overcast
11:40 AM 46.4 °F 45.2 °F 44.6 °F 93% 30.11 in 2.5 mi North 3.5 mph - 0.01 in Rain Light Rain
11:53 AM 46.9 °F - 45.0 °F 93% 30.10 in 4.0 mi NE 3.5 mph - 0.01 in   Overcast
12:30 PM 46.4 °F 45.2 °F 44.6 °F 93% 30.09 in 2.5 mi ENE 3.5 mph - 0.00 in Rain Light Rain
12:45 PM 48.2 °F - 46.4 °F 93% 30.08 in 5.0 mi Variable 5.8 mph - 0.00 in   Overcast
1:53 PM 48.0 °F - 46.9 °F 96% 30.08 in 1.0 mi NE 3.5 mph - N/A   Overcast
2:24 PM 48.2 °F - 46.4 °F 93% 30.11 in 2.0 mi NW 6.9 mph - N/A   Overcast
2:53 PM 46.0 °F 39.9 °F 44.1 °F 93% 30.14 in 1.8 mi NW 13.8 mph 19.6 mph N/A   Overcast
3:17 PM 44.6 °F 38.8 °F 42.8 °F 93% 30.15 in 2.5 mi NW 11.5 mph 18.4 mph 0.00 in   Overcast
3:19 PM 44.6 °F 38.8 °F 42.8 °F 93% 30.15 in 3.0 mi NW 11.5 mph 18.4 mph 0.00 in   Overcast
3:33 PM 44.6 °F 40.7 °F 42.8 °F 93% 30.15 in 2.5 mi NNW 6.9 mph 20.7 mph 0.00 in   Overcast
3:40 PM 44.6 °F 38.8 °F 41.0 °F 87% 30.16 in 3.0 mi NNW 11.5 mph 18.4 mph 0.00 in   Overcast
3:53 PM 43.0 °F 36.8 °F 41.0 °F 93% 30.17 in 4.0 mi NW 11.5 mph 18.4 mph 0.00 in   Overcast
4:53 PM 41.0 °F 34.3 °F 39.0 °F 93% 30.20 in 3.0 mi NNW 11.5 mph 17.3 mph 0.01 in   Overcast
5:53 PM 39.0 °F 35.7 °F 37.0 °F 93% 30.20 in 6.0 mi NNE 4.6 mph - N/A   Overcast
6:06 PM 39.2 °F 34.2 °F 37.4 °F 93% 30.19 in 10.0 mi NE 6.9 mph - N/A   Overcast
6:17 PM 39.2 °F 35.9 °F 37.4 °F 93% 30.20 in 10.0 mi Variable 4.6 mph - N/A   Overcast
6:53 PM 41.0 °F 39.0 °F 39.0 °F 93% 30.19 in 5.0 mi North 3.5 mph - N/A   Overcast
7:17 PM 41.0 °F 35.2 °F 39.2 °F 93% 30.19 in 3.0 mi NNW 9.2 mph - 0.00 in Rain Light Rain
7:53 PM 41.0 °F - 39.0 °F 93% 30.19 in 10.0 mi Calm Calm - 0.01 in   Overcast
8:33 PM 41.0 °F 38.0 °F 39.2 °F 93% 30.16 in 2.5 mi NNE 4.6 mph - 0.01 in Rain Light Rain
8:46 PM 41.0 °F 38.0 °F 39.2 °F 93% 30.16 in 5.0 mi Variable 4.6 mph - 0.02 in Rain Light Rain
8:53 PM 41.0 °F 38.0 °F 39.0 °F 93% 30.16 in 6.0 mi NE 4.6 mph - 0.02 in Rain Light Rain
9:33 PM 42.8 °F 41.1 °F 39.2 °F 87% 30.14 in 3.0 mi Variable 3.5 mph - 0.01 in Rain Light Rain
9:43 PM 42.8 °F - 39.2 °F 87% 30.14 in 2.0 mi Calm Calm - 0.03 in Rain Light Rain
9:53 PM 42.1 °F 38.4 °F 39.9 °F 92% 30.13 in 2.5 mi ENE 5.8 mph - 0.04 in Rain Light Rain
10:09 PM 42.8 °F 40.1 °F 41.0 °F 93% 30.12 in 5.0 mi ENE 4.6 mph - 0.01 in Rain Light Rain
10:53 PM 43.0 °F 41.3 °F 41.0 °F 93% 30.11 in 6.0 mi ENE 3.5 mph - 0.02 in Rain Light Rain
11:04 PM 42.8 °F 41.1 °F 41.0 °F 93% 30.11 in 2.0 mi East 3.5 mph - 0.04 in Rain Light Rain
11:15 PM 42.8 °F 39.3 °F 41.0 °F 93% 30.10 in 5.0 mi ENE 5.8 mph - 0.04 in Rain Light Rain
11:53 PM 44.1 °F 42.5 °F 42.1 °F 93% 30.10 in 5.0 mi Variable 3.5 mph - 0.08 in Rain Light Rain